Home > Weather > Victorville > Past weeks

Flag for USA Past Weather in Victorville, California, USA — Yesterday and Last 2 Weeks

Now
84 °F

Sunny.


Feels Like: 81 °F
Forecast: 69 / 99 °F
Wind: No wind

Location: George Air Force Base / Victorvi

Current Time: Jul 25, 2016 at 9:06:23 AM

Latest Report: Jul 25, 2016 at 8:35 AM


Visibility: 10 mi

Pressure: 30.03 "Hg (27.34 "Hg at 830m altitude)

Humidity: 16%

Dew Point: 34 °F

Location of VictorvilleLocation

Past Weather in Victorville — Graph

°F

Victorville Temperature Yesterday

Maximum temperature yesterday: 104 °F (at 2:55 PM)
Minimum temperature yesterday: 70 °F (at 4:55 AM)
Average temperature yesterday: 88 °F

High & Low Weather Summary for the Past Weeks

 TemperatureHumidityPressure
High106 °F (Jul 22, 3:55 PM)56% (Jul 12, 4:35 AM)30.11 "Hg (Jul 12, 4:35 AM)
Low61 °F (Jul 11, 5:35 AM)5% (Jul 13, 4:15 PM)29.84 "Hg (Jul 11, 5:15 PM)
Average84 °F18%29.99 "Hg
* Reported Jul 10 7:15 AM — Jul 25 7:55 AM, Victorville, Weather by CustomWeather, © 2016

Note: Actual official high and low records may vary slightly from our data, if they occured in-between our weather recording intervals... More about our weather records

Advertising

Victorville Weather History for the Previous 24 Hours

Scroll right to see more
 ConditionsComfort  
Time TempWeatherWind HumidityBarometerVisibility
7:55 AM
Mon, Jul 25
81 °FSunny.5 mph16%30.03 "Hg10 mi
7:15 AM79 °FSunny.6 mph17%30.02 "Hg10 mi
6:55 AM77 °FSunny.5 mph18%30.01 "Hg10 mi
6:15 AM75 °FClear.5 mph19%30.01 "Hg10 mi
5:55 AM73 °FClear.6 mph19%30.00 "Hg10 mi
5:35 AM75 °FClear.7 mph18%30.00 "Hg10 mi
5:15 AM75 °FClear.No wind16%30.00 "Hg10 mi
4:55 AM75 °FClear.No wind15%30.00 "Hg10 mi
4:35 AM75 °FClear.No wind15%30.00 "Hg10 mi
4:15 AM75 °FClear.No wind14%30.00 "Hg10 mi
3:55 AM75 °FClear.No wind14%29.99 "Hg10 mi
3:35 AM73 °FClear.No wind15%30.00 "Hg10 mi
3:15 AM75 °FClear.7 mph14%30.00 "Hg10 mi
2:55 AM75 °FClear.7 mph14%30.00 "Hg10 mi
2:15 AM77 °FClear.No wind14%30.00 "Hg10 mi
1:55 AM75 °FClear.No wind15%30.00 "Hg10 mi
1:35 AM79 °FClear.No wind15%30.00 "Hg10 mi
1:15 AM79 °FClear.No wind15%30.00 "Hg10 mi
12:55 AM81 °FClear.No wind14%30.00 "Hg10 mi
12:35 AM79 °FClear.No wind15%29.99 "Hg10 mi
12:15 AM79 °FClear.No wind15%30.00 "Hg10 mi
11:55 PM
Sun, Jul 24
79 °FClear.No wind16%30.00 "Hg10 mi
11:15 PM79 °FClear.No wind20%30.00 "Hg10 mi
10:55 PM81 °FClear.6 mph20%30.00 "Hg10 mi
10:35 PM81 °FClear.7 mph21%30.00 "Hg10 mi
10:15 PM82 °FClear.8 mph21%30.00 "Hg10 mi
9:55 PM82 °FClear.9 mph21%30.00 "Hg10 mi
9:15 PM84 °FClear.10 mph18%29.99 "Hg10 mi
8:55 PM84 °FSunny.9 mph18%29.98 "Hg10 mi
8:35 PM88 °FSunny.8 mph15%29.98 "Hg10 mi
8:15 PM90 °FSunny.12 mph15%29.97 "Hg7 mi
7:55 PM90 °FSunny.10 mph15%29.96 "Hg7 mi
7:15 PM93 °FSunny.13 mph14%29.95 "Hg7 mi
6:55 PM93 °FScattered clouds.14 mph14%29.95 "Hg5 mi
6:35 PM97 °FScattered clouds.12 mph13%29.94 "Hg5 mi
6:15 PM97 °FScattered clouds.13 mph13%29.94 "Hg7 mi
5:55 PM99 °FScattered clouds.15 mph11%29.94 "Hg5 mi
5:35 PM99 °FScattered clouds.15 mph11%29.94 "Hg5 mi
5:15 PM100 °FScattered clouds.12 mph11%29.94 "Hg7 mi
4:55 PM100 °FScattered clouds.12 mph11%29.94 "Hg7 mi
4:35 PM102 °FScattered clouds.10 mph11%29.93 "Hg7 mi
4:15 PM102 °FScattered clouds.9 mph10%29.93 "Hg10 mi
3:55 PM102 °FScattered clouds.16 mph10%29.93 "Hg10 mi
3:35 PM104 °FScattered clouds.10 mph9%29.93 "Hg10 mi
3:15 PM102 °FScattered clouds.7 mph9%29.94 "Hg10 mi
2:55 PM104 °FScattered clouds.9 mph9%29.94 "Hg10 mi
2:35 PM102 °FScattered clouds.12 mph9%29.95 "Hg10 mi
2:15 PM102 °FScattered clouds.12 mph9%29.96 "Hg10 mi
1:55 PM102 °FScattered clouds.12 mph9%29.96 "Hg10 mi
1:15 PM102 °FScattered clouds.12 mph8%29.97 "Hg10 mi
12:55 PM100 °FScattered clouds.15 mph8%29.97 "Hg10 mi
12:35 PM100 °FScattered clouds.15 mph8%29.97 "Hg10 mi
12:15 PM100 °FScattered clouds.10 mph8%29.98 "Hg10 mi
11:55 AM99 °FScattered clouds.18 mph9%29.98 "Hg10 mi
11:35 AM100 °FScattered clouds.15 mph8%29.98 "Hg10 mi
11:15 AM99 °FScattered clouds.14 mph9%29.97 "Hg10 mi
10:55 AM99 °FScattered clouds.15 mph8%29.97 "Hg10 mi
10:35 AM99 °FSunny.8 mph8%29.97 "Hg10 mi
10:15 AM97 °FSunny.No wind9%29.97 "Hg10 mi
9:55 AM93 °FPartly sunny.No wind11%29.97 "Hg1 mi
9:35 AM91 °FSunny.No wind11%29.97 "Hg10 mi
9:15 AM91 °FSunny.6 mph13%29.97 "Hg10 mi
Weather by CustomWeather, © 2016

See weather overviewHow to use our weather pages